{"data":{"norad_id":65326,"intl_designator":"2025-189D","name":"STARLINK-34902","alt_names":[],"object_type":"PAYLOAD","status":"ACTIVE","operator":null,"country":"US","launch_date":"2025-08-27","launch_site_code":"AFETR","launch_vehicle":null,"mission":null,"orbit_class":"UNKNOWN","rcs_meters":null,"size_class":null,"mass_kg":null,"dimensions":null,"purposes":["comms"],"wikipedia_slug":null,"has_3d_model":false,"image_url":null,"decayed_at":null,"tle_current":{"epoch":"2026-09-20T22:00:03.000096Z","epoch_age_seconds":81650,"freshness":"FRESH","line1":"1 65326U 25189D   26263.91670139 -.00011280  00000+0 -32335-3 0  9994","line2":"2 65326  53.1586  17.5938 0000994  77.7142 149.7960 15.34387979  5787","mean_motion":15.34387979,"eccentricity":9.94e-5,"inclination_deg":53.1586,"raan_deg":17.5938,"arg_perigee_deg":77.7142,"mean_anomaly_deg":149.796,"bstar":-0.00032335,"rev_number":578,"period_min":93.848493321649,"perigee_km":462.05898631432,"apogee_km":463.41895245703,"semimajor_km":6840.8759693857,"source":"CELESTRAK","updated_at":"2026-09-21T09:00:35.569344Z"}}}